This is the latest recevied weather packets stored in our database for station/object PA2JOK. If no packets are shown the sender has not sent any weather packets the latest 10 day(s).
| Time | Temp. | Humidity | Pressure | Rain* | Wind** | Luminosity | Snow |
|---|---|---|---|---|---|---|---|
| 1777714383 | 19.44° C | 60% | 1016.8 hPa | 0 mm | - | - | - |
| 1777713482 | 18.89° C | 61% | 1016.9 hPa | 0 mm | - | - | - |
| 1777712583 | 18.89° C | 59% | 1016.8 hPa | 0 mm | - | - | - |
| 1777711683 | 19.44° C | 57% | 1016.8 hPa | 0 mm | - | - | - |
| 1777710782 | 18.89° C | 54% | 1016.8 hPa | 0 mm | - | - | - |
| 1777709882 | 18.33° C | 54% | 1016.8 hPa | 0 mm | - | - | - |
| 1777708983 | 16.67° C | 56% | 1016.6 hPa | 0 mm | - | - | - |
| 1777708083 | 15.56° C | 60% | 1016.3 hPa | 0 mm | - | - | - |
| 1777707183 | 15° C | 61% | 1016.1 hPa | 0 mm | - | - | - |
| 1777706283 | 13.89° C | 59% | 1016.2 hPa | 0 mm | - | - | - |
| 1777705383 | 13.89° C | 58% | 1016.5 hPa | 0 mm | - | - | - |
| 1777704483 | 13.33° C | 56% | 1016.4 hPa | 0 mm | - | - | - |
| 1777703583 | 12.78° C | 54% | 1016.7 hPa | 0 mm | - | - | - |
| 1777702683 | 12.78° C | 53% | 1016.7 hPa | 0 mm | - | - | - |
| 1777701783 | 12.78° C | 52% | 1016.7 hPa | 0 mm | - | - | - |
| 1777700883 | 12.78° C | 51% | 1016.6 hPa | 0 mm | - | - | - |
| 1777699983 | 12.78° C | 50% | 1016.6 hPa | 0 mm | - | - | - |
| 1777699083 | 12.78° C | 49% | 1016.6 hPa | 0 mm | - | - | - |
| 1777698183 | 13.33° C | 48% | 1016.5 hPa | 0 mm | - | - | - |
| 1777697283 | 12.78° C | 47% | 1016.3 hPa | 0 mm | - | - | - |
| 1777696382 | 12.22° C | 49% | 1016.3 hPa | 0 mm | - | - | - |
| 1777695482 | 12.22° C | 49% | 1016.3 hPa | 0 mm | - | - | - |
| 1777694582 | 12.22° C | 49% | 1016.4 hPa | 0 mm | - | - | - |
| 1777693683 | 12.22° C | 49% | 1016.4 hPa | 0 mm | - | - | - |
| 1777692783 | 12.22° C | 50% | 1016.5 hPa | 0 mm | - | - | - |
* Rain latest hour (hover to see other rain measurements)
** Current wind speed in m/s (hover to see current wind gust speed)